{"data":{"norad_id":61623,"epoch":"2026-09-20T23:36:42.225120Z","epoch_age_seconds":150211,"freshness":"FRESH","line1":"1 61623U 24191C   26263.98382205  .00011993  00000+0  44451-3 0  9994","line2":"2 61623  43.0010 135.0921 0001102 301.1935  58.8808 15.27590275107362","mean_motion":15.27590275,"eccentricity":0.0001102,"inclination_deg":43.001,"raan_deg":135.0921,"arg_perigee_deg":301.1935,"mean_anomaly_deg":58.8808,"bstar":0.00044451,"rev_number":10736,"period_min":94.2661146491,"perigee_km":482.26222984842,"apogee_km":483.77442848297,"semimajor_km":6861.1553291657,"source":"CELESTRAK","updated_at":"2026-09-22T09:00:49.394980Z"}}